Wind_Speed
10 10 11 10 10 10 9 9 13 11 8 9 8 2 4 2 2 3 11 10 10 10 9 8 8 7 7 6 5 4 5 7 8 8 9 11 11 13 13 13 14 15 15 14 14 14 15 15 14
9 10 10 10 7 9 7 8 11 12 10 9 9 7 8 8 6 8 9 9 8 9 9 8 7 6 5 4 2 3 5 6 7 8 9 11 13 16 19 16 16 18 18 17 16 16 15 15 17
7 8 6 4 7 6 4 7 9 13 13 11 13 12 9 8 8 7 7 7 8 8 8 7 6 5 4 2 1 2 5 7 7 9 11 14 14 15 16 16 17 17 17 16 15 14 14 15 16
6 7 4 2 4 5 6 6 11 13 14 12 10 9 9 8 8 5 5 6 8 7 8 7 6 4 3 2 2 5 6 6 8 12 12 12 13 15 16 16 17 17 17 17 17 17 16 15 15
9 6 5 5 4 4 4 5 8 11 13 10 8 8 9 8 6 5 5 4 6 6 5 5 5 4 4 4 5 6 5 8 10 9 10 12 14 16 17 18 18 18 19 19 18 18 19 18 17
10 7 5 3 1 2 2 4 5 8 11 9 7 7 9 7 5 3 5 6 7 8 8 7 6 6 7 7 7 9 8 8 7 8 10 12 15 18 20 20 20 21 23 23 21 19 18 19 19
8 6 3 2 2 3 4 4 3 5 7 7 6 2 7 9 11 6 6 5 6 5 6 8 8 9 9 8 8 8 7 5 5 7 10 13 17 20 21 23 25 25 26 27 26 25 23 20 20
6 5 1 2 2 2 5 4 3 2 4 6 8 6 8 16 7 7 7 4 4 6 7 7 6 5 6 6 6 5 3 2 2 6 10 13 17 20 21 24 27 28 30 31 32 31 29 26 24
6 4 2 4 5 4 3 7 8 4 3 1 4 14 12 19 15 11 11 11 6 4 6 6 5 3 3 5 5 6 6 4 4 8 11 16 20 23 24 26 29 30 31 33 32 31 31 31 31
6 4 1 7 9 7 7 4 4 2 2 1 6 12 11 13 14 12 9 11 12 6 1 3 3 2 4 6 7 7 6 6 8 11 14 19 23 24 26 29 31 33 35 36 35 32 31 32 34
3 4 4 4 7 8 10 7 6 5 3 3 5 8 10 9 11 13 10 7 9 9 7 7 8 7 7 9 9 10 10 11 13 15 20 24 27 28 31 33 36 38 41 40 38 36 34 33 33
4 7 8 5 6 7 5 6 3 2 3 3 3 7 2 6 6 8 9 6 6 9 9 8 11 13 14 11 10 11 12 14 16 19 23 25 28 30 35 38 40 42 43 42 43 44 41 36 34
6 5 8 8 8 6 9 5 7 1 5 7 6 4 5 2 2 1 5 8 6 9 12 12 11 12 12 10 11 11 13 15 17 20 23 27 31 35 39 44 43 42 44 45 46 45 45 44 39
7 5 6 8 8 7 10 9 11 5 6 2 8 7 2 5 6 6 5 8 8 12 13 13 14 13 11 9 9 10 14 17 19 23 26 31 37 40 45 45 45 46 46 46 46 46 46 44 42
1 6 9 11 11 11 11 18 10 13 8 6 5 10 6 4 8 9 10 11 13 13 16 15 15 12 12 11 9 11 15 18 24 30 33 37 40 45 47 46 47 47 46 45 45 45 43 39 38
4 3 4 12 11 11 14 10 6 13 9 3 6 9 10 3 8 11 12 12 16 14 15 13 16 13 13 12 9 11 16 20 23 27 33 38 44 46 46 46 48 47 46 46 46 44 40 36 34
9 9 6 4 5 9 12 9 9 9 7 8 9 7 7 5 7 10 13 12 14 13 10 13 15 14 13 12 12 13 16 22 28 33 37 42 46 48 47 46 46 45 45 45 46 42 38 35 34
6 8 7 5 4 4 11 10 6 7 8 8 8 4 4 6 8 9 11 12 12 10 10 13 15 17 15 14 14 17 22 27 32 36 40 45 48 51 48 48 48 46 47 45 41 38 33 33 35
4 4 4 4 3 2 5 7 10 13 14 6 8 4 4 6 8 8 12 13 15 13 12 14 15 17 17 18 18 18 25 30 35 38 43 47 51 51 48 49 49 48 49 44 37 33 31 31 33
2 3 4 3 7 10 10 10 10 8 4 7 9 8 7 6 8 9 10 13 12 13 12 14 15 16 17 18 22 22 28 31 36 40 45 50 52 50 50 51 52 52 47 38 33 32 31 31 32
4 6 6 8 9 8 3 5 4 2 1 5 12 14 10 8 2 3 3 5 10 11 12 15 16 17 19 20 23 27 30 33 37 43 48 51 50 50 52 52 54 52 44 35 30 31 33 33 32
6 9 11 11 10 4 5 2 5 3 7 9 9 10 9 9 8 9 7 3 4 7 11 14 14 16 18 21 25 29 32 36 41 46 48 48 48 51 51 52 50 43 36 33 34 33 34 34 33
7 11 14 10 3 6 8 2 5 8 6 6 5 6 5 9 13 8 8 9 9 9 9 10 10 15 20 23 26 30 34 40 44 46 46 48 49 51 52 52 43 35 33 36 36 35 33 31 30
9 11 5 5 9 2 10 3 3 6 6 5 2 2 8 12 11 9 10 13 9 10 9 11 14 15 21 25 28 33 37 39 41 43 46 48 49 51 49 42 37 36 36 36 36 31 29 29 26
7 14 5 2 3 3 8 3 3 2 5 7 5 4 10 8 9 10 12 13 12 11 11 16 19 21 23 26 29 32 35 37 40 43 46 48 50 49 44 38 35 37 37 35 30 30 28 29 26
8 12 6 4 4 8 7 2 3 4 4 8 11 8 12 11 10 10 14 14 13 12 14 18 23 24 24 27 30 32 35 38 41 43 46 48 49 47 39 36 35 36 34 30 30 29 32 28 22
5 8 5 2 4 3 3 4 8 7 7 9 12 12 14 13 9 12 14 16 16 16 17 23 23 23 24 26 30 33 36 38 41 44 47 48 47 43 38 36 36 31 28 29 28 30 30 24 21
3 4 6 5 3 6 4 7 9 15 10 11 13 15 15 11 11 12 15 18 20 20 20 25 27 24 25 30 33 36 40 42 44 47 48 48 44 39 37 35 31 28 28 30 28 27 24 20 15
3 2 1 1 2 5 5 10 17 10 13 14 15 18 15 10 12 13 15 20 22 21 23 31 29 29 32 34 38 42 47 47 46 48 49 47 41 38 35 32 28 28 29 26 22 20 17 11 9
4 2 3 2 4 6 7 14 5 17 14 13 16 18 10 12 12 15 18 20 20 22 29 32 29 33 34 35 37 44 49 49 47 49 50 45 39 35 30 26 26 27 24 22 17 15 13 9 6
Wind_Direction
49 61 78 76 61 57 49 50 52 55 74 104 121 159 12 6 57 116 148 146 144 135 131 127 124 118 109 100 80 50 22 3 5 23 32 29 29 28 23 23 19 15 12 7 2 357 352 349 346
35 58 83 67 51 49 52 48 53 66 62 87 89 70 62 62 87 117 148 156 153 147 137 135 126 122 123 114 75 7 1 25 50 44 41 41 44 42 37 33 29 22 19 17 10 1 354 350 346
43 36 93 49 20 50 66 53 62 80 84 86 85 90 83 85 92 110 145 163 174 165 147 147 161 163 149 137 343 20 66 70 52 43 56 55 45 35 28 19 12 8 5 2 358 352 348 339 336
34 62 98 70 62 71 68 72 64 84 93 93 102 103 112 116 125 133 145 180 180 179 169 177 186 181 168 160 106 94 98 66 63 72 60 39 27 18 13 10 5 1 355 351 344 337 329 322 317
29 97 108 84 82 83 72 87 71 84 90 104 115 116 116 111 119 132 134 142 148 159 150 164 157 146 141 137 123 116 95 88 81 59 40 27 15 7 2 358 354 350 347 341 336 329 322 314 307
33 96 111 87 258 117 125 101 56 95 97 99 112 124 69 52 98 107 104 120 132 124 133 132 128 117 119 114 111 111 110 99 78 40 17 7 4 2 359 352 346 342 341 339 336 330 322 315 309
36 96 100 3 6 219 186 131 94 110 111 111 101 124 33 45 45 93 112 125 135 124 128 133 124 118 117 118 115 115 112 100 42 12 357 354 350 350 349 347 342 338 337 337 335 330 323 314 306
12 29 47 253 287 119 198 181 152 135 143 110 91 51 38 29 47 98 116 121 152 153 130 124 127 123 118 117 137 138 133 134 355 334 335 339 341 339 336 336 337 335 336 334 332 328 321 314 307
342 327 305 223 225 204 145 194 186 155 223 102 67 55 76 63 86 103 88 56 43 126 134 130 151 178 201 208 210 197 198 219 284 307 327 334 332 330 328 328 329 330 329 328 325 321 315 311 307
303 308 211 215 238 234 255 216 204 139 262 1 44 63 84 79 74 71 57 53 46 25 355 245 221 242 275 278 253 238 242 263 287 313 327 329 327 324 322 323 324 324 324 324 321 317 310 305 302
270 210 217 210 217 218 235 238 238 221 313 3 30 51 55 82 64 75 62 48 32 38 5 300 281 293 303 296 269 253 255 277 305 319 327 328 326 324 321 322 321 321 322 321 319 315 311 307 300
123 181 194 190 209 211 210 229 190 46 242 332 14 63 5 50 88 90 62 34 358 7 357 325 300 288 289 305 286 268 272 292 311 321 326 328 327 324 322 322 321 320 320 320 319 317 315 311 306
124 180 208 232 237 230 219 211 226 275 268 272 298 28 65 293 304 343 4 26 338 305 320 334 315 284 288 292 285 284 283 297 306 316 320 326 327 324 324 323 321 320 320 319 317 316 315 313 307
164 204 223 238 228 218 224 238 249 230 272 339 283 301 16 277 273 290 321 335 344 322 301 311 316 303 292 287 287 287 291 293 301 305 308 316 319 323 327 324 323 321 320 318 316 313 308 304 301
215 233 223 218 227 228 221 233 235 241 262 281 301 281 270 292 287 290 307 333 332 325 316 303 307 293 283 282 293 298 297 297 306 306 304 317 325 326 322 321 320 319 317 316 312 308 304 300 295
127 109 200 230 242 221 214 239 249 246 245 300 290 292 277 300 295 291 304 332 328 322 321 309 307 288 275 272 281 301 302 306 310 308 314 320 320 321 321 319 318 316 314 312 309 305 302 296 291
64 72 87 78 244 238 202 247 227 224 218 243 271 294 290 276 310 313 319 327 330 319 322 320 316 312 284 274 273 287 297 306 313 316 315 317 319 320 318 317 315 312 311 312 308 304 300 295 291
81 49 64 90 94 154 207 253 251 253 257 258 253 310 287 273 290 305 305 303 316 318 312 315 317 313 311 293 288 293 301 306 313 314 313 316 317 318 316 315 314 314 314 313 306 300 295 291 289
65 46 82 82 67 306 285 297 304 283 272 243 227 233 250 266 278 290 293 285 292 305 315 310 310 316 313 310 299 305 307 308 313 312 313 312 312 314 313 314 314 314 314 312 306 298 291 286 288
350 2 360 319 321 322 308 301 307 289 272 219 179 163 196 231 247 268 267 271 278 296 309 310 303 309 308 304 298 300 306 311 308 307 306 308 311 313 313 315 315 315 313 312 305 300 294 290 288
356 341 332 324 309 321 275 278 283 294 109 166 167 155 145 173 128 219 272 272 265 282 296 294 302 305 294 287 298 300 307 304 303 305 306 309 314 315 316 317 318 317 314 310 304 299 296 293 291
347 331 318 304 300 312 255 271 230 175 143 145 131 131 88 94 40 29 30 348 303 285 289 291 294 296 297 298 301 301 302 302 304 306 310 313 315 315 315 316 317 314 310 308 305 299 296 295 292
349 343 315 307 143 75 27 251 238 201 177 169 137 134 58 31 14 8 11 14 355 326 301 301 303 303 303 309 303 302 302 305 309 312 315 316 317 316 317 317 314 311 308 307 305 303 300 298 295
333 340 355 67 156 31 15 4 317 209 202 202 182 168 15 355 349 348 352 355 341 324 317 331 337 322 308 312 305 307 310 312 313 316 318 318 317 318 318 318 314 312 311 309 308 304 303 300 300
1 16 0 39 25 356 345 353 3 353 230 233 242 266 343 311 326 332 340 349 341 339 333 329 333 330 318 314 315 314 315 318 320 321 321 321 321 320 321 320 316 315 313 312 308 307 305 302 290
16 31 37 356 334 332 325 338 347 354 322 311 283 290 311 297 317 321 334 339 338 330 324 327 332 329 323 321 321 322 323 324 324 323 324 326 325 322 322 320 319 317 315 314 312 310 308 302 290
328 3 5 297 302 298 313 295 330 338 333 309 319 302 292 278 315 325 332 339 338 312 319 328 328 327 326 328 331 330 327 325 325 327 328 327 327 325 324 322 320 318 316 321 316 313 313 304 283
326 329 344 336 315 324 306 295 303 325 319 309 314 298 279 289 316 327 325 336 330 314 316 329 331 329 332 332 332 335 335 330 330 330 330 330 327 325 323 322 319 318 318 320 316 318 319 313 297
307 302 279 271 261 304 304 307 308 320 313 303 305 288 273 301 321 324 314 331 319 308 319 331 329 330 332 330 331 334 337 335 332 332 332 330 327 324 322 321 320 319 318 321 321 326 328 326 317
292 260 310 326 310 283 276 297 315 323 318 305 307 283 273 316 320 308 318 321 308 309 325 334 332 335 332 327 329 337 333 333 331 331 332 329 326 322 322 328 324 319 323 323 324 329 328 334 336
Height
3215 3214 3213 3214 3217 3214 3212 3212 3210 3210 3209 3209 3208 3209 3209 3209 3210 3214 3212 3213 3214 3215 3216 3217 3218 3219 3219 3220 3220 3220 3220 3219 3218 3217 3217 3216 3215 3214 3213 3211 3210 3209 3207 3206 3204 3203 3201 3200 3199
3216 3216 3216 3215 3217 3216 3216 3214 3213 3211 3210 3209 3209 3209 3210 3210 3209 3210 3212 3213 3215 3216 3217 3218 3219 3219 3220 3220 3220 3220 3220 3219 3219 3218 3217 3217 3216 3215 3214 3212 3211 3210 3208 3207 3205 3203 3201 3200 3198
3218 3217 3218 3217 3217 3217 3218 3216 3215 3213 3211 3211 3210 3210 3210 3211 3211 3212 3213 3214 3215 3216 3217 3218 3219 3219 3219 3220 3220 3220 3220 3220 3219 3219 3218 3217 3216 3215 3214 3213 3211 3210 3209 3207 3205 3204 3202 3200 3198
3218 3219 3220 3219 3219 3219 3219 3218 3216 3214 3213 3212 3213 3213 3212 3212 3211 3212 3213 3214 3215 3217 3217 3218 3219 3219 3219 3219 3220 3220 3220 3220 3220 3219 3219 3218 3217 3216 3215 3213 3211 3210 3208 3206 3204 3203 3201 3199 3196
3219 3219 3219 3219 3220 3219 3219 3220 3218 3216 3215 3215 3215 3215 3214 3213 3213 3213 3213 3215 3216 3216 3218 3218 3219 3219 3220 3220 3220 3220 3220 3221 3221 3220 3219 3218 3217 3216 3214 3213 3211 3208 3207 3204 3202 3200 3198 3196 3194
3220 3220 3220 3220 3220 3220 3220 3220 3220 3218 3217 3217 3217 3217 3217 3215 3214 3214 3215 3216 3217 3218 3218 3219 3220 3220 3220 3221 3221 3220 3220 3220 3220 3220 3219 3218 3217 3215 3213 3211 3209 3206 3205 3202 3200 3197 3195 3193 3191
3220 3220 3221 3220 3220 3220 3220 3220 3221 3220 3219 3219 3219 3219 3219 3217 3217 3216 3217 3218 3218 3219 3220 3221 3221 3221 3221 3221 3221 3220 3220 3220 3219 3218 3217 3216 3215 3212 3211 3209 3206 3204 3201 3199 3196 3194 3191 3189 3187
3220 3221 3221 3221 3222 3222 3221 3221 3221 3221 3221 3220 3220 3221 3221 3219 3217 3217 3218 3219 3219 3220 3221 3222 3223 3223 3222 3222 3221 3220 3219 3219 3218 3217 3215 3214 3213 3210 3208 3205 3203 3200 3197 3194 3191 3188 3185 3184 3182
3221 3222 3221 3222 3222 3222 3221 3221 3222 3222 3221 3222 3222 3222 3222 3223 3220 3220 3220 3221 3221 3222 3222 3222 3222 3222 3221 3221 3220 3219 3218 3217 3216 3215 3214 3212 3210 3207 3205 3202 3198 3196 3193 3190 3188 3184 3181 3178 3175
3220 3220 3220 3221 3221 3222 3222 3222 3222 3223 3222 3222 3223 3223 3223 3224 3223 3223 3223 3223 3223 3223 3223 3222 3221 3220 3220 3220 3219 3218 3217 3216 3215 3214 3212 3210 3207 3203 3201 3198 3194 3191 3188 3185 3182 3179 3176 3173 3170
3219 3219 3220 3220 3221 3221 3221 3222 3222 3223 3223 3224 3224 3224 3224 3224 3224 3224 3224 3223 3223 3223 3222 3222 3221 3220 3219 3217 3216 3216 3215 3214 3213 3212 3209 3206 3203 3200 3197 3194 3190 3186 3182 3178 3176 3173 3170 3167 3164
3218 3219 3220 3220 3220 3221 3221 3222 3222 3222 3224 3223 3224 3224 3224 3226 3225 3224 3224 3223 3223 3222 3221 3220 3220 3219 3217 3215 3214 3214 3213 3212 3211 3208 3205 3202 3200 3197 3193 3189 3185 3180 3176 3172 3168 3164 3160 3158 3156
3218 3219 3220 3220 3220 3221 3221 3222 3223 3222 3222 3222 3223 3224 3224 3226 3225 3224 3223 3223 3222 3221 3219 3218 3217 3216 3215 3213 3212 3211 3211 3209 3208 3205 3201 3198 3196 3193 3189 3184 3178 3174 3169 3165 3160 3155 3150 3147 3146
3218 3218 3219 3220 3220 3220 3220 3221 3221 3221 3222 3221 3221 3223 3223 3224 3224 3223 3222 3222 3221 3219 3217 3217 3215 3213 3212 3211 3209 3208 3207 3206 3204 3201 3198 3195 3192 3187 3181 3176 3171 3166 3161 3155 3151 3147 3143 3140 3136
3218 3217 3217 3217 3218 3218 3219 3220 3218 3221 3220 3220 3220 3221 3221 3222 3223 3222 3222 3221 3220 3217 3216 3214 3212 3210 3209 3208 3207 3206 3205 3203 3200 3197 3194 3189 3184 3179 3175 3170 3164 3159 3154 3149 3144 3140 3135 3132 3128
3217 3216 3216 3216 3216 3217 3219 3218 3219 3219 3219 3219 3218 3219 3220 3221 3221 3220 3221 3219 3218 3216 3215 3212 3210 3208 3206 3205 3204 3202 3201 3199 3196 3192 3189 3184 3179 3174 3169 3163 3158 3152 3147 3141 3136 3131 3126 3123 3121
3217 3217 3216 3217 3216 3217 3218 3218 3217 3217 3216 3216 3216 3218 3219 3220 3220 3220 3219 3218 3217 3215 3213 3210 3207 3205 3204 3202 3201 3199 3198 3195 3192 3188 3183 3178 3172 3166 3160 3155 3150 3144 3139 3132 3126 3122 3117 3114 3112
3218 3217 3217 3217 3218 3217 3217 3217 3216 3215 3214 3213 3214 3216 3218 3218 3218 3218 3217 3216 3215 3214 3211 3209 3205 3203 3200 3199 3197 3196 3194 3190 3186 3181 3176 3170 3163 3157 3151 3145 3139 3133 3128 3122 3117 3112 3109 3106 3104
3218 3218 3218 3218 3218 3217 3217 3216 3214 3213 3211 3211 3212 3213 3216 3217 3217 3217 3215 3215 3213 3211 3208 3205 3203 3200 3197 3196 3194 3191 3189 3185 3179 3174 3168 3163 3157 3150 3144 3137 3130 3124 3117 3112 3107 3103 3100 3099 3095
3218 3218 3219 3218 3216 3216 3214 3213 3212 3210 3208 3208 3209 3211 3214 3215 3216 3215 3214 3212 3211 3208 3205 3203 3200 3197 3194 3192 3190 3187 3184 3180 3174 3169 3164 3157 3151 3144 3137 3130 3123 3115 3108 3102 3097 3093 3091 3089 3086
3218 3218 3217 3217 3214 3213 3212 3211 3210 3209 3208 3208 3209 3211 3213 3214 3214 3213 3210 3209 3207 3205 3202 3200 3197 3195 3192 3189 3186 3182 3179 3175 3170 3165 3159 3151 3143 3135 3128 3120 3112 3105 3098 3093 3089 3085 3081 3079 3078
3218 3217 3215 3213 3213 3212 3211 3210 3209 3208 3209 3210 3210 3211 3212 3212 3211 3209 3207 3206 3204 3201 3200 3198 3195 3193 3189 3186 3182 3178 3174 3170 3164 3158 3151 3143 3134 3126 3118 3109 3102 3095 3090 3086 3081 3077 3074 3070 3068
3218 3216 3213 3211 3210 3211 3211 3211 3208 3208 3210 3210 3211 3211 3211 3210 3209 3207 3205 3203 3201 3199 3197 3195 3192 3188 3185 3181 3177 3173 3169 3163 3156 3149 3141 3134 3126 3118 3110 3102 3093 3087 3082 3077 3072 3067 3064 3061 3059
3217 3215 3212 3210 3210 3211 3211 3211 3208 3209 3210 3210 3210 3210 3209 3208 3206 3204 3202 3200 3198 3196 3193 3190 3188 3184 3181 3176 3172 3167 3161 3155 3148 3140 3132 3125 3116 3108 3100 3092 3085 3080 3073 3067 3063 3058 3055 3052 3050
3216 3214 3212 3211 3211 3212 3211 3211 3209 3209 3209 3209 3209 3208 3207 3205 3203 3201 3199 3197 3195 3192 3189 3187 3184 3180 3176 3171 3165 3160 3153 3147 3140 3132 3124 3115 3106 3097 3089 3082 3076 3070 3064 3059 3054 3051 3047 3043 3042
3215 3215 3215 3215 3213 3213 3211 3211 3210 3209 3208 3207 3206 3206 3204 3202 3201 3199 3196 3194 3191 3188 3186 3183 3179 3174 3169 3164 3159 3153 3147 3139 3131 3123 3115 3105 3096 3087 3080 3073 3067 3061 3056 3051 3047 3043 3039 3034 3032
3215 3215 3216 3214 3214 3214 3211 3210 3208 3207 3206 3205 3204 3203 3201 3200 3198 3196 3193 3190 3187 3184 3181 3178 3173 3168 3164 3159 3153 3147 3139 3132 3125 3116 3106 3096 3087 3078 3071 3065 3059 3054 3049 3045 3041 3036 3031 3027 3026
3214 3215 3215 3214 3213 3211 3210 3209 3207 3205 3204 3202 3201 3199 3198 3197 3195 3192 3189 3186 3183 3180 3177 3173 3168 3163 3158 3153 3147 3140 3133 3124 3115 3106 3097 3087 3079 3071 3065 3059 3053 3048 3044 3040 3035 3030 3026 3021 3020
3213 3213 3213 3214 3214 3212 3208 3206 3204 3203 3201 3199 3197 3195 3194 3193 3191 3188 3186 3183 3180 3176 3173 3168 3163 3157 3152 3146 3140 3132 3124 3116 3107 3098 3089 3080 3072 3064 3058 3052 3047 3044 3039 3034 3030 3026 3023 3019 3017
3212 3211 3212 3211 3212 3210 3208 3204 3201 3200 3198 3195 3193 3190 3191 3190 3188 3186 3183 3179 3176 3173 3169 3162 3157 3152 3146 3139 3132 3125 3117 3109 3100 3091 3082 3073 3065 3058 3051 3047 3044 3039 3033 3030 3027 3024 3020 3018 3015